Hoquiam, WA

2:11 PM PST on December 08, 2016 (GMT -0800)
Bowerman

Weather History for KHQM - December, 2012

Change the Weather History Date:

Friday, December 7, 2012

  Actual Average Record
Temperature  
Mean Temperature 44 °F 42 °F  
Max Temperature 48 °F 47 °F 56 °F (2014)
Min Temperature 39 °F 37 °F 15 °F (1972)
Degree Days  
Heating Degree Days 22 23  
Month to date heating degree days 159  
Cooling Degree Days 0 0  
Month to date cooling degree days 0  
Year to date cooling degree days 23  
Moisture  
Dew Point 40 °F    
Average Humidity 82    
Maximum Humidity 93    
Minimum Humidity 63    
Precipitation  
Precipitation 0.20 in 0.33 in 1.74 in (1998)
Month to date precipitation 2.38  
Year to date precipitation 59.97  
Sea Level Pressure  
Sea Level Pressure 30.10 in    
Wind  
Wind Speed 15 mph (West)    
Max Wind Speed 29 mph    
Max Gust Speed 39 mph    
Visibility 9 miles    
Events Rain    
T = Trace of Precipitation, MM = Missing Value Source: NWS Daily Summary

Daily Weather History Graph

Daily Weather History Graph

Search for Another Location

Airport or City:

Trip Planner

Search our weather history database for the weather conditions in past years. The results will help you decide how hot, cold, wet, or windy it might be!

Date:

Astronomy

Dec. 07, 2012 Rise Set
Actual Time 7:48 AM PST 4:26 PM PST
Civil Twilight 7:12 AM PST 5:01 PM PST
Nautical Twilight 6:34 AM PST 5:40 PM PST
Astronomical Twilight 5:57 AM PST 6:17 PM PST
Moon 12:52 AM PST (12/7) 12:45 PM PST (12/7)
Length of Visible Light 9h 48m
Length of Day
8h 38m
Last Quarter, 37% of the Moon is Illuminated
Dec 7
Last Quarter
Dec 13
New
Dec 19
First Quarter
Dec 28
Full
Jan 4
Last Quarter

Hourly Weather History & Observations

Time (PST) Temp. Windchill Dew Point Humidity Pressure Visibility Wind Dir Wind Speed Gust Speed Precip Events Conditions
12:53 AM 48.0 °F - 44.1 °F 86% 30.11 in 10.0 mi SSW 18.4 mph - N/A   Overcast
1:53 AM 48.0 °F - 44.1 °F 86% 30.11 in 10.0 mi SW 17.3 mph - 0.00 in   Mostly Cloudy
2:53 AM 46.9 °F - 44.1 °F 90% 30.11 in 7.0 mi WSW 12.7 mph - 0.02 in Rain Light Rain
3:53 AM 48.0 °F - 45.0 °F 89% 30.08 in 10.0 mi SW 15.0 mph - 0.01 in   Mostly Cloudy
4:53 AM 48.0 °F - 42.1 °F 80% 30.07 in 10.0 mi SSW 18.4 mph - N/A   Overcast
5:53 AM 46.0 °F 39.3 °F 42.1 °F 86% 30.05 in 10.0 mi SW 16.1 mph - 0.04 in   Overcast
6:15 AM 46.4 °F 37.4 °F 44.6 °F 93% 30.03 in 6.0 mi WSW 28.8 mph 39.1 mph 0.02 in Rain Light Rain
6:26 AM 46.4 °F 38.7 °F 42.8 °F 87% 30.03 in 10.0 mi SW 20.7 mph 29.9 mph 0.03 in Rain Light Rain
6:53 AM 48.0 °F - 44.1 °F 86% 30.05 in 10.0 mi WSW 18.4 mph - 0.03 in   Overcast
7:03 AM 48.2 °F - 44.6 °F 87% 30.03 in 10.0 mi WSW 16.1 mph - N/A   Overcast
7:13 AM 48.2 °F - 44.6 °F 87% 30.04 in 10.0 mi West 12.7 mph - 0.00 in Rain Light Rain
7:27 AM 46.4 °F 39.5 °F 42.8 °F 87% 30.04 in 6.0 mi West 17.3 mph 25.3 mph 0.01 in Rain Light Rain
7:53 AM 48.0 °F - 44.1 °F 86% 30.04 in 10.0 mi WSW 12.7 mph - 0.02 in   Overcast
8:13 AM 48.2 °F - 42.8 °F 82% 30.03 in 10.0 mi WSW 15.0 mph 20.7 mph N/A   Overcast
8:42 AM 46.4 °F 42.4 °F 42.8 °F 87% 30.04 in 10.0 mi West 8.1 mph - N/A   Overcast
8:53 AM 46.9 °F - 42.1 °F 83% 30.05 in 10.0 mi West 9.2 mph - N/A   Overcast
9:01 AM 46.4 °F 41.1 °F 42.8 °F 87% 30.04 in 10.0 mi West 11.5 mph - N/A   Mostly Cloudy
9:11 AM 48.2 °F - 41.0 °F 76% 30.04 in 10.0 mi West 15.0 mph - N/A   Mostly Cloudy
9:53 AM 46.9 °F - 42.1 °F 83% 30.05 in 10.0 mi WSW 17.3 mph - 0.03 in   Overcast
10:29 AM 46.4 °F 39.8 °F 42.8 °F 87% 30.06 in 7.0 mi West 16.1 mph - 0.01 in Rain Light Rain
10:42 AM 46.4 °F 40.7 °F 42.8 °F 87% 30.07 in 10.0 mi West 12.7 mph - 0.01 in   Overcast
10:53 AM 46.0 °F 40.2 °F 41.0 °F 83% 30.07 in 10.0 mi West 12.7 mph - 0.01 in   Overcast
11:29 AM 46.4 °F 40.7 °F 41.0 °F 81% 30.07 in 10.0 mi WNW 12.7 mph 23.0 mph N/A   Overcast
11:40 AM 46.4 °F 40.7 °F 39.2 °F 76% 30.07 in 10.0 mi West 12.7 mph 19.6 mph N/A   Overcast
11:53 AM 46.0 °F 41.0 °F 39.0 °F 76% 30.08 in 10.0 mi West 10.4 mph 18.4 mph N/A   Overcast
12:53 PM 46.0 °F 38.8 °F 35.1 °F 66% 30.10 in 10.0 mi West 18.4 mph 28.8 mph N/A   Mostly Cloudy
1:53 PM 46.9 °F - 35.1 °F 63% 30.11 in 10.0 mi West 18.4 mph 26.5 mph N/A   Scattered Clouds
2:53 PM 46.0 °F 39.0 °F 34.0 °F 63% 30.12 in 10.0 mi West 17.3 mph - N/A   Clear
3:53 PM 46.0 °F 39.3 °F 35.1 °F 66% 30.13 in 10.0 mi West 16.1 mph - N/A   Mostly Cloudy
4:53 PM 44.6 °F 38.4 °F 33.8 °F 66% 30.13 in 10.0 mi West 12.7 mph - N/A   Clear
5:53 PM 43.0 °F 36.8 °F 35.1 °F 74% 30.17 in 10.0 mi NW 11.5 mph 20.7 mph N/A   Overcast
6:53 PM 42.1 °F 39.2 °F 36.0 °F 79% 30.17 in 10.0 mi West 4.6 mph - N/A   Partly Cloudy
7:53 PM 41.0 °F 39.0 °F 37.4 °F 87% 30.17 in 10.0 mi North 3.5 mph - N/A   Scattered Clouds
8:32 PM 41.0 °F 39.0 °F 37.4 °F 87% 30.18 in 8.0 mi North 3.5 mph - 0.01 in Rain Light Rain
8:39 PM 41.0 °F 39.0 °F 37.4 °F 87% 30.18 in 10.0 mi NW 3.5 mph - 0.01 in Rain Light Rain
8:53 PM 41.0 °F 39.0 °F 37.0 °F 86% 30.20 in 9.0 mi WSW 3.5 mph - 0.02 in Rain Light Rain
9:53 PM 39.9 °F 37.8 °F 37.0 °F 89% 30.20 in 10.0 mi NNW 3.5 mph - 0.00 in   Clear
10:53 PM 39.0 °F - 37.0 °F 93% 30.20 in 10.0 mi Calm Calm - N/A   Scattered Clouds
11:53 PM 39.0 °F - 37.0 °F 93% 30.22 in 4.0 mi Calm Calm - 0.02 in Rain Light Rain